Greenville, SC

6:16 PM EDT on August 24, 2016 (GMT -0400)
Greenville Downtown

Weather History for KGMU - November, 2012

Change the Weather History Date:

Saturday, November 3, 2012

  Actual Average Record
Temperature  
Mean Temperature 58 °F -  
Max Temperature 73 °F 64 °F 81 °F (2000)
Min Temperature 42 °F 46 °F 32 °F (2014)
Degree Days  
Heating Degree Days 8    
Growing Degree Days 8 (Base 50)    
Moisture  
Dew Point 37 °F    
Average Humidity 49    
Maximum Humidity 79    
Minimum Humidity 25    
Precipitation  
Precipitation 0.00 in - - ()
Sea Level Pressure  
Sea Level Pressure 30.03 in    
Wind  
Wind Speed 3 mph (WSW)    
Max Wind Speed 7 mph    
Max Gust Speed -    
Visibility 10 miles    
Events      
Averages and records for this station are not official NWS values.
T = Trace of Precipitation, MM = Missing Value Source: NWS Daily Summary

Daily Weather History Graph

Daily Weather History Graph

Search for Another Location

Airport or City:

Trip Planner

Search our weather history database for the weather conditions in past years. The results will help you decide how hot, cold, wet, or windy it might be!

Date:

Astronomy

Nov. 03, 2012 Rise Set
Actual Time 7:52 AM EDT 6:32 PM EDT
Civil Twilight 7:26 AM EDT 6:59 PM EDT
Nautical Twilight 6:56 AM EDT 7:29 PM EDT
Astronomical Twilight 6:26 AM EDT 7:58 PM EDT
Moon 10:16 PM EDT (11/3) 11:51 AM EDT (11/3)
Length of Visible Light 11h 32m
Length of Day
10h 40m
Waning Gibbous, 80% of the Moon is Illuminated
Nov 3
Waning Gibbous
Nov 6
Last Quarter
Nov 13
New
Nov 20
First Quarter
Nov 28
Full

Hourly Weather History & Observations

Time (EDT) Temp. Windchill Dew Point Humidity Pressure Visibility Wind Dir Wind Speed Gust Speed Precip Events Conditions
12:53 AM 52.0 °F - 34.0 °F 50% 29.99 in 10.0 mi North 5.8 mph - N/A   Clear
1:53 AM 48.0 °F - 37.0 °F 66% 30.01 in 10.0 mi Calm Calm - N/A   Clear
2:53 AM 48.0 °F - 35.1 °F 61% 30.01 in 10.0 mi Calm Calm - N/A   Clear
3:53 AM 46.9 °F - 36.0 °F 66% 30.01 in 10.0 mi Calm Calm - N/A   Clear
4:53 AM 44.1 °F - 37.0 °F 76% 30.02 in 10.0 mi Calm Calm - N/A   Clear
5:53 AM 46.0 °F - 36.0 °F 68% 30.04 in 10.0 mi Calm Calm - N/A   Clear
6:53 AM 43.0 °F - 36.0 °F 76% 30.06 in 10.0 mi Calm Calm - N/A   Clear
7:53 AM 42.1 °F 40.2 °F 36.0 °F 79% 30.09 in 10.0 mi NW 3.5 mph - N/A   Clear
8:53 AM 50.0 °F - 34.0 °F 54% 30.10 in 10.0 mi NNW 5.8 mph - N/A   Clear
9:53 AM 53.1 °F - 34.0 °F 48% 30.12 in 10.0 mi Calm Calm - N/A   Clear
10:53 AM 60.1 °F - 30.0 °F 32% 30.11 in 10.0 mi Variable 3.5 mph - N/A   Clear
11:53 AM 62.1 °F - 33.1 °F 34% 30.10 in 10.0 mi South 6.9 mph - N/A   Clear
12:53 PM 64.9 °F - 35.1 °F 33% 30.07 in 10.0 mi Variable 3.5 mph - N/A   Clear
1:53 PM 69.1 °F - 34.0 °F 27% 30.05 in 10.0 mi Variable 5.8 mph - N/A   Clear
2:53 PM 71.1 °F - 33.1 °F 25% 30.03 in 10.0 mi SSW 6.9 mph - N/A   Clear
3:53 PM 72.0 °F - 34.0 °F 25% 30.01 in 10.0 mi SW 4.6 mph - N/A   Clear
4:53 PM 73.0 °F - 36.0 °F 26% 30.00 in 10.0 mi SW 5.8 mph - N/A   Clear
5:53 PM 72.0 °F - 39.0 °F 30% 29.99 in 10.0 mi SSW 4.6 mph - N/A   Clear
6:53 PM 68.0 °F - 41.0 °F 37% 29.99 in 10.0 mi Calm Calm - N/A   Clear
7:53 PM 66.0 °F - 42.1 °F 42% 29.99 in 10.0 mi Calm Calm - N/A   Clear
8:53 PM 63.0 °F - 42.1 °F 46% 29.99 in 10.0 mi Calm Calm - N/A   Clear
9:53 PM 60.1 °F - 44.1 °F 55% 29.99 in 10.0 mi Calm Calm - N/A   Clear
10:53 PM 61.0 °F - 44.1 °F 54% 29.99 in 10.0 mi Calm Calm - N/A   Clear
11:53 PM 59.0 °F - 46.0 °F 62% 29.98 in 10.0 mi Calm Calm - N/A   Clear